Track SNAP-3 JIMI now! 10-day predictions SNAP-3 JIMI is classified as:
1 40975U 15058M 24325.10700729 .00011922 00000-0 90083-3 0 9994 2 40975 64.7676 223.6428 0172764 258.9609 99.2031 14.91538917 28244